CZ-6A DEB

Satellite information

Favourite Embed

Satellite Type and Status

DEBRISIN ORBIT

Key statistics

Satellite CZ-6A DEB at a glance.

Uptime

1074

Days in orbit

Revolutions

≈ 14.6

Per day

Orbit

SSO

Sun Synchronous Orbit

Inclination

98.6

Latest

Satellite identification and parameters

Extended collection of information and parameters for CZ-6A DEB.

Object identification

Identified? True

Debris? True

Object name: CZ-6A DEB

International designator: 2022-151HF

Object number (NORAD): 54479

Object ID (CCSDS): 54479

Country: PEOPLES REPUBLIC OF CHINA (PRC)

Current information (Y/N): Y

RCS size: SMALL

Orbital parameters

Period: 98.7 minutes

Inclination: 98.6441 deg

SMA: 7074.667 km

Apoapsis: 758.085 km

Periapsis: 634.978 km

RAAN: 335.1994 deg

Eccentricy: 0.00870056

Argument of periapsis: 337.9494 deg

Mean anomaly: 21.797 deg

Mean motion: 14.58961366 rev/day

Mean motion (dot): 0.00018517 rev/day2

B* drag term: 0.0037467767 1/REarth

Two-line elements (TLE)

Creation date: Oct. 20, 2025, 2:10 a.m.

Reference frame: TEME

Reference center: EARTH

Epoch: Oct. 19, 2025, 10:20 p.m. UTC

TLE line 0: 0 CZ-6A DEB

TLE line 1: 1 54479U 22151HF 25292.93070306 .00018517 00000-0 37468-2 0 9990

TLE line 2: 2 54479 98.6441 335.1994 0087006 337.9494 21.7970 14.58961366154585

Live tracking on map

Real-time ground track for satellite CZ-6A DEB.

In-orbit conjunctions

A list of the most updated potential collisions computed for object CZ-6A DEB.

Target Orbit TCA Probability of collision Miss distance Type
TIROS 8 LEO 2025-09-14 08:24:25 0.000148643 585.0 (m) PAYLOAD
IRIDIUM 16 LEO 2025-09-12 02:40:01 0.002180519 132.0 (m) PAYLOAD
RITE TARGET 2 SSO 2025-02-03 14:21:55 0.0001667259 969.0 (m) PAYLOAD
COSMOS 1624 LEO 2024-11-21 03:48:41 0.0001669891 507.0 (m) PAYLOAD
FENGYUN 1C DEB SSO 2024-06-30 13:02:07 0.000151008 427.0 (m) DEBRIS

Associated space launch

Chinese satellite reported for atmospheric/ocean/environmental/spatial parameter research purposes, details TBD.

CZ-6A DEB was lifted into orbit during the mission ‘Long March 6A | Yunhai 3’, on board a Long March 6A space rocket.

The launch took place on Nov. 11, 2022, 10:52 p.m. from Launch Complex 9A.

For more information about the launch, click the button.

Launch to space Long March 6A | Yunhai 3
Long March 6A | Yunhai 3

Agency: N/A

Status: Launch Successful

Launch date: Nov. 11, 2022, 10:52 p.m. UTC

Rocket: Long March 6A

Launch pad: Launch Complex 9A

Location: Taiyuan Satellite Launch Center, People's Republic of China

...

Latest news about this satellite

There are no fresh news available about this satellite. Check back as we update our databases every day.


Newsletter sign-up

Weekly statistics, charts and insights to help you stay on top of the space industry.